Regional Weather Roundup
Issued by NWS

Home | Current Version | Previous Version | Graphics & Text | Print | Product List | Glossary On
Versions: 1 2 3 4 5 6 7 8 9 10 11 12 13 14 15 16 17 18 19 20 21 22 23 24 25 26 27 28 29 30 31 32 33 34 35 36 37 38 39 40 41 42 43 44 45 46 47 48 49 50
000
ASUS45 KCYS 300910
RWRWY

WYOMING REGIONAL WEATHER ROUNDUP
NATIONAL WEATHER SERVICE CHEYENNE WY
300 AM MDT SAT JUL 30 2016

NOTE:  "FAIR" INDICATES FEW OR NO CLOUDS BELOW 12,000 FEET
WITH NO SIGNIFICANT WEATHER AND/OR OBSTRUCTIONS TO VISIBILITY.

WYZ001-301000-
YELLOWSTONE NATIONAL PARK

CITY           SKY/WX    TMP DP  RH WIND       PRES   REMARKS
LK YELLOWSTONE   N/A     46  41  82 CALM      30.23F
W YELLOWSTONE  NOT AVBL

$$
WYZ002>013-054>058-071-098>099-301000-
NORTHERN WYOMING

CITY           SKY/WX    TMP DP  RH WIND       PRES   REMARKS
JACKSON        FAIR      52  37  58 N6        30.13R
CODY           FAIR      64  48  55 CALM      30.04S
GREYBULL       FAIR      66  49  54 SE6       29.98S
WORLAND        FAIR      61  45  55 S8        29.99S
SHERIDAN       FAIR      58  48  69 S6        29.97F
BUFFALO        FAIR      63  48  58 SW7       30.05S
GILLETTE       FAIR      62  58  86 S13       30.01F
HULETT         FAIR      63  54  72 SW5       30.03S
NEWCASTLE      FAIR      63  54  72 SE7       30.06S

$$
WYZ014>020-022>026-101>103-301000-
CENTRAL WYOMING

CITY           SKY/WX    TMP DP  RH WIND       PRES   REMARKS
BIG PINEY      FAIR      49  30  48 NW6       30.21R
PINEDALE       FAIR      46  32  57 NW3       30.22R
DUBOIS         FAIR      55  39  54 NW3       30.22S
LANDER         FAIR      63  43  48 W5        30.11S
RIVERTON       FAIR      63  47  55 CALM      30.10S
CASPER         FAIR      54  52  93 W5        30.09F
DOUGLAS        MOCLDY    62  57  83 E12       30.09R

$$
WYZ021-027>030-104>119-301000-
SOUTHERN WYOMING

CITY           SKY/WX    TMP DP  RH WIND       PRES   REMARKS
EVANSTON       FAIR      62  32  32 SE9       30.20R
KEMMERER         N/A     55  27  33 CALM      30.22R
FORT BRIDGER   FAIR      62  29  29 SE3       30.22R
ROCK SPRINGS   FAIR      62  43  49 NE7       30.16S
DIXON          FAIR      51  34  52 SE5       30.15R
RAWLINS        FAIR      58  51  78 NE12      30.16R
SARATOGA       FAIR      54  43  66 CALM      30.17S
LARAMIE        FAIR      56  54  93 S10       30.18F
CHEYENNE       FAIR      58  55  90 SW5       30.15F
TORRINGTON     FAIR      59  57  93 NE9       30.04R
PINE BLUFFS    CLOUDY    61  59  94 SW6       30.11F

$$



USA.gov is the U.S. government's official web portal to all federal, state and local government web resources and services.